Nederland, TX

8:36 PM CST on February 24, 2017 (GMT -0600)
Southeast Texas Regional

Weather History for KBPT - August, 2013

Change the Weather History Date:

Monday, August 26, 2013

  Actual Average Record
Temperature  
Mean Temperature 76 °F 83 °F  
Max Temperature 80 °F 92 °F 101 °F (1990)
Min Temperature 72 °F 74 °F 65 °F (1966)
Degree Days  
Heating Degree Days 0 0  
Month to date heating degree days 0 0  
Since 1 June heating degree days 0 0  
Since 1 July heating degree days 0 0  
Cooling Degree Days 11 18  
Month to date cooling degree days 500 468  
Year to date cooling degree days 2092 2074  
Since 1 June cooling degree days 1605 1508  
Growing Degree Days 26 (Base 50)    
Moisture  
Dew Point 73 °F    
Average Humidity 90    
Maximum Humidity 94    
Minimum Humidity 85    
Precipitation  
Precipitation 0.58 in 0.18 in 2.80 in (1946)
Month to date precipitation 0.96 4.42  
Year to date precipitation 35.21 38.27  
Snow  
Snow 0.00 in 0.00 in 0.00 in ()
Month to date snowfall 0.0 0.0  
Since 1 June snowfall 0.0 0.0  
Since 1 July snowfall 0.0 0.0  
Snow Depth 0.00 in    
Sea Level Pressure  
Sea Level Pressure 30.11 in    
Wind  
Wind Speed 8 mph (East)    
Max Wind Speed 17 mph    
Max Gust Speed 26 mph    
Visibility 8 miles    
Events Rain    
T = Trace of Precipitation, MM = Missing Value Source: NWS Daily Summary

Daily Weather History Graph

Daily Weather History Graph

Search for Another Location

Airport or City:

Trip Planner

Search our weather history database for the weather conditions in past years. The results will help you decide how hot, cold, wet, or windy it might be!

Date:

Astronomy

Aug. 26, 2013 Rise Set
Actual Time 6:49 AM CDT 7:45 PM CDT
Civil Twilight 6:25 AM CDT 8:09 PM CDT
Nautical Twilight 5:56 AM CDT 8:38 PM CDT
Astronomical Twilight 5:26 AM CDT 9:08 PM CDT
Moon 11:27 PM CDT (8/26) 12:22 PM CDT (8/26)
Length of Visible Light 13h 44m
Length of Day
12h 55m
Waning Gibbous, 66% of the Moon is Illuminated
Aug 26
Waning Gibbous
Aug 28
Last Quarter
Sep 5
New
Sep 12
First Quarter
Sep 19
Full

Hourly Weather History & Observations

Time (CDT) Temp. Dew Point Humidity Pressure Visibility Wind Dir Wind Speed Gust Speed Precip Events Conditions
12:53 AM 78.1 °F 73.9 °F 87% 30.09 in 10.0 mi East 8.1 mph - N/A   Partly Cloudy
1:53 AM 77.0 °F 73.9 °F 90% 30.07 in 10.0 mi ENE 11.5 mph - N/A   Scattered Clouds
2:53 AM 77.0 °F 73.9 °F 90% 30.07 in 10.0 mi ENE 9.2 mph - N/A   Mostly Cloudy
3:06 AM 77.0 °F 73.4 °F 89% 30.06 in 10.0 mi ENE 9.2 mph - N/A   Scattered Clouds
3:23 AM 77.0 °F 73.4 °F 89% 30.06 in 10.0 mi ENE 9.2 mph - N/A   Mostly Cloudy
3:53 AM 77.0 °F 73.9 °F 90% 30.06 in 10.0 mi ENE 9.2 mph - N/A   Overcast
4:53 AM 77.0 °F 73.0 °F 88% 30.06 in 10.0 mi NE 8.1 mph - N/A   Mostly Cloudy
5:27 AM 75.2 °F 73.4 °F 94% 30.07 in 10.0 mi ENE 11.5 mph - N/A   Partly Cloudy
5:46 AM 75.2 °F 73.4 °F 94% 30.07 in 10.0 mi ENE 13.8 mph - N/A   Mostly Cloudy
5:53 AM 75.9 °F 73.0 °F 91% 30.07 in 10.0 mi ENE 11.5 mph - N/A   Mostly Cloudy
6:53 AM 77.0 °F 73.0 °F 88% 30.08 in 10.0 mi ENE 10.4 mph - N/A   Overcast
7:53 AM 77.0 °F 73.0 °F 88% 30.11 in 10.0 mi ENE 11.5 mph - N/A   Overcast
8:53 AM 78.1 °F 73.0 °F 84% 30.12 in 10.0 mi ENE 13.8 mph - N/A   Overcast
9:53 AM 79.0 °F 73.9 °F 84% 30.13 in 10.0 mi ENE 12.7 mph - N/A   Mostly Cloudy
10:48 AM 75.2 °F 71.6 °F 89% 30.14 in 2.5 mi SE 8.1 mph - 0.00 in Rain Rain
10:53 AM 73.9 °F 72.0 °F 93% 30.14 in 1.5 mi SE 6.9 mph - 0.06 in Rain Heavy Rain
10:59 AM 75.2 °F 73.4 °F 94% 30.14 in 3.0 mi ESE 5.8 mph - 0.01 in Rain Light Rain
11:07 AM 75.2 °F 73.4 °F 94% 30.14 in 1.8 mi ESE 10.4 mph - 0.01 in Rain Heavy Rain
11:09 AM 75.2 °F 73.4 °F 94% 30.14 in 0.8 mi ESE 11.5 mph - 0.08 in Rain Heavy Rain
11:24 AM 75.2 °F 73.4 °F 94% 30.14 in 1.5 mi ESE 9.2 mph - 0.39 in Rain Rain
11:26 AM 75.2 °F 73.4 °F 94% 30.14 in 2.0 mi ESE 9.2 mph - 0.40 in Rain Rain
11:34 AM 75.2 °F 73.4 °F 94% 30.14 in 5.0 mi ESE 8.1 mph - 0.41 in Rain Rain
11:53 AM 75.9 °F 73.0 °F 91% 30.14 in 10.0 mi SE 6.9 mph - 0.42 in Rain Light Rain
12:00 PM 75.2 °F 73.4 °F 94% 30.15 in 10.0 mi SE 8.1 mph - 0.00 in Rain Light Rain
12:53 PM 75.9 °F 73.9 °F 94% 30.15 in 9.0 mi SSE 9.2 mph - 0.01 in Rain Light Rain
1:53 PM 77.0 °F 73.0 °F 88% 30.14 in 10.0 mi South 5.8 mph - 0.00 in   Overcast
2:00 PM 77.0 °F 73.4 °F 89% 30.14 in 10.0 mi SSE 6.9 mph - 0.00 in Rain Light Rain
2:35 PM 78.8 °F 73.4 °F 83% 30.14 in 10.0 mi South 4.6 mph - 0.00 in Rain Light Rain
2:53 PM 77.0 °F 73.9 °F 90% 30.14 in 2.0 mi SSW 6.9 mph - 0.00 in Rain Light Rain
3:53 PM 77.0 °F 73.9 °F 90% 30.13 in 2.0 mi Calm Calm - 0.07 in Rain Light Rain
4:00 PM 77.0 °F 73.4 °F 89% 30.13 in 10.0 mi SSE 4.6 mph - 0.00 in Rain Light Rain
4:08 PM 78.8 °F 73.4 °F 83% 30.12 in 8.0 mi South 5.8 mph - 0.00 in Rain Light Rain
4:53 PM 75.9 °F 72.0 °F 87% 30.12 in 8.0 mi SE 6.9 mph - 0.02 in Rain Light Rain
5:00 PM 75.2 °F 71.6 °F 89% 30.11 in 10.0 mi SE 5.8 mph - N/A   Overcast
5:53 PM 75.9 °F 72.0 °F 87% 30.11 in 10.0 mi East 8.1 mph - 0.00 in   Scattered Clouds
6:53 PM 75.9 °F 71.1 °F 85% 30.10 in 10.0 mi East 4.6 mph - N/A   Clear
7:53 PM 75.0 °F 71.1 °F 87% 30.07 in 10.0 mi East 4.6 mph - N/A   Clear
8:53 PM 75.0 °F 71.1 °F 87% 30.10 in 10.0 mi Variable 4.6 mph - N/A   Clear
9:14 PM 75.2 °F 71.6 °F 89% 30.10 in 10.0 mi ENE 6.9 mph - N/A   Partly Cloudy
9:53 PM 75.0 °F 71.1 °F 87% 30.10 in 10.0 mi ENE 3.5 mph - N/A   Clear
10:53 PM 73.0 °F 71.1 °F 93% 30.09 in 10.0 mi East 3.5 mph - N/A   Clear
11:53 PM 75.0 °F 72.0 °F 90% 30.08 in 10.0 mi ENE 6.9 mph - N/A   Clear